Wind_Speed
86 86 87 88 90 90 91 91 90 90 89 89 88 88 87 87 87 87 87 88 88 89 90 91 91 91 91 90 91 91 91 91 91 91 91 92 93 94 95 96 96 96 96 98 99 98 97 95 94 93 92 89
88 88 89 89 90 91 92 92 92 92 92 92 93 92 92 92 91 91 91 92 92 93 93 94 94 94 93 93 93 93 93 93 93 94 94 95 95 96 96 96 97 98 99 100 98 97 96 96 96 94 91 88
90 91 91 92 92 92 93 93 93 94 94 94 94 94 95 95 95 95 95 96 96 96 96 96 96 96 96 95 95 94 94 94 94 94 95 95 96 97 98 99 100 101 100 98 97 96 97 98 96 94 91 89
93 93 94 95 95 95 95 95 95 94 94 94 94 94 94 94 95 96 96 97 97 97 96 96 96 97 97 96 95 95 95 95 95 96 97 98 99 100 101 101 100 99 98 97 97 98 98 97 94 93 91 91
94 95 96 96 97 97 98 98 97 96 96 95 95 95 95 95 95 96 96 96 96 96 96 96 97 97 97 97 97 98 98 98 99 100 100 101 101 100 100 99 98 98 98 98 99 99 98 96 95 94 94 94
95 96 96 96 95 95 94 95 96 96 96 97 97 97 97 97 97 97 96 95 94 94 95 96 97 97 98 98 99 100 101 101 101 101 101 100 100 99 99 99 99 99 100 100 99 98 98 98 98 98 99 100
93 95 96 96 96 95 94 94 95 94 94 95 95 96 98 99 99 97 96 95 93 93 93 94 95 95 96 97 98 99 99 100 100 100 100 100 100 100 100 100 100 100 100 100 100 100 101 102 103 104 105 106
91 92 94 95 95 96 96 96 98 98 97 96 95 94 95 96 97 96 95 95 95 94 94 94 95 95 96 96 97 97 97 98 98 98 99 99 100 101 102 102 102 103 103 104 105 106 107 108 109 109 109 110
95 94 94 94 94 95 96 97 98 99 100 101 100 99 98 97 97 96 96 96 96 96 96 96 96 97 97 97 98 98 97 98 99 101 102 103 104 105 106 107 108 109 109 110 111 111 112 113 113 113 113 112
101 100 98 98 97 97 97 98 98 99 100 101 102 103 103 103 103 103 103 102 102 101 101 101 101 101 102 102 102 102 103 104 106 107 108 108 109 110 111 112 113 113 114 114 115 115 115 115 115 115 115 114
105 104 103 103 102 102 102 102 102 102 102 102 102 103 105 106 106 107 108 109 109 109 109 109 109 109 108 109 109 109 109 110 111 112 112 113 114 115 116 116 117 117 117 117 118 118 118 117 117 117 117 117
107 107 107 106 106 106 106 106 106 106 106 106 106 106 107 107 108 108 109 110 111 112 113 113 114 114 114 114 114 114 114 114 115 116 116 117 118 118 118 118 118 118 118 119 119 119 119 119 119 119 119 119
110 110 110 110 110 110 110 110 110 110 110 109 110 110 110 111 111 111 111 111 112 113 114 114 115 116 116 117 117 117 117 118 118 118 119 119 119 119 119 119 120 120 120 120 120 120 121 121 121 121 121 121
111 112 112 112 112 112 113 113 114 114 114 113 113 113 113 114 114 114 115 115 115 116 116 117 117 117 118 118 119 119 119 119 119 120 120 121 121 121 122 122 122 123 123 123 123 123 122 123 123 123 123 123
111 112 112 112 112 113 114 115 115 116 116 116 116 116 116 117 117 117 118 118 118 119 119 120 120 121 121 121 121 121 121 121 122 122 122 123 123 124 124 124 125 125 125 125 125 125 125 125 125 126 125 126
111 112 112 112 113 113 113 114 115 116 117 117 118 118 118 119 120 120 120 120 121 121 122 122 123 123 123 124 124 124 124 124 124 125 125 125 125 126 126 127 127 128 128 128 128 128 128 129 128 128 127 127
109 110 111 111 112 112 112 113 113 114 115 116 117 118 119 120 121 122 122 122 123 124 124 125 125 126 126 126 126 126 126 126 126 126 126 127 127 127 128 128 129 130 130 130 130 130 130 130 129 128 128 127
109 110 110 111 111 111 112 112 112 112 113 114 115 117 118 120 121 122 123 123 124 125 125 126 126 127 127 127 127 127 127 127 127 127 128 128 128 128 129 129 130 130 130 130 130 130 129 129 128 128 127 127
111 111 112 112 112 112 112 112 112 112 112 113 114 115 116 118 119 120 121 122 123 123 124 125 126 126 126 126 126 126 127 127 127 128 128 128 129 128 128 128 129 129 129 129 129 129 128 128 127 127 127 127
113 114 114 114 114 114 114 114 114 114 114 114 115 116 117 118 119 120 120 121 121 122 123 123 124 125 125 125 125 126 126 126 126 127 127 128 128 127 127 127 127 128 128 128 128 128 127 127 127 127 127 127
116 116 116 116 117 117 117 117 117 117 117 117 118 118 119 120 120 121 122 122 122 122 123 123 124 124 125 124 125 125 125 125 126 126 126 127 127 126 126 126 127 127 128 128 128 128 128 128 128 128 127 127
118 118 119 119 119 120 120 120 121 121 121 121 121 121 122 123 124 124 124 125 124 125 125 125 125 126 126 126 126 126 126 126 127 127 127 127 127 127 127 127 128 128 129 129 129 128 128 129 128 128 128 128
120 120 121 121 122 122 122 123 123 123 124 124 124 124 125 125 126 127 127 127 127 128 128 128 128 128 128 128 128 128 129 129 129 129 129 129 129 129 129 129 130 130 130 130 130 130 130 130 130 129 129 129
122 122 123 123 124 124 124 125 125 125 126 126 126 126 126 127 128 128 128 129 129 129 130 130 130 130 130 131 131 131 131 131 131 131 131 131 131 131 131 131 131 132 131 131 131 131 131 131 131 130 130 129
123 124 124 125 125 126 126 126 126 126 127 127 127 127 127 127 128 128 129 129 129 130 130 131 131 131 131 132 132 132 132 132 132 132 132 132 132 132 132 132 132 132 132 131 131 131 131 131 130 130 129 129
124 124 125 125 126 126 126 127 127 127 127 127 127 127 127 127 128 128 129 129 129 130 130 130 131 131 131 131 131 131 132 132 132 132 133 133 132 132 132 132 132 133 132 131 131 131 130 130 129 129 128 128
122 123 124 124 125 125 125 126 126 126 127 127 127 127 127 127 128 128 128 129 129 129 130 130 130 131 131 131 131 131 131 132 132 132 132 132 132 132 131 131 132 132 132 131 131 131 130 129 129 128 128 128
119 120 121 122 122 123 124 124 125 125 126 126 126 126 126 127 127 127 127 128 128 128 129 129 130 130 130 131 131 131 130 131 131 131 131 132 131 131 130 130 131 132 132 131 131 131 130 129 129 128 128 128
115 116 117 118 119 120 121 122 122 123 123 124 124 124 124 124 125 125 125 125 125 126 126 127 127 128 128 129 129 129 129 129 129 130 130 130 130 130 130 130 130 131 131 132 132 131 130 130 129 127 128 128
112 113 114 115 116 117 118 118 119 120 120 121 121 121 121 121 121 121 121 122 122 123 123 124 124 124 125 126 126 127 127 127 128 129 129 130 130 130 130 130 130 130 131 132 132 131 130 130 129 127 127 127
109 110 110 111 112 113 113 114 115 116 116 117 117 117 117 117 118 118 118 118 119 119 120 121 121 122 123 124 125 125 126 126 127 128 128 129 129 130 130 130 130 130 131 132 131 131 131 130 129 128 127 126
Wind_Direction
252 253 253 253 253 254 254 255 255 255 255 255 255 255 255 256 257 258 260 261 262 263 264 265 266 267 267 267 267 268 268 268 268 268 268 267 268 268 268 269 270 272 273 275 277 278 278 278 279 280 279 279
252 253 254 254 254 255 256 256 257 257 257 256 256 256 256 256 257 258 259 260 261 261 263 264 265 265 266 266 266 266 267 267 267 267 267 267 267 268 268 269 271 273 274 276 277 277 278 279 280 279 279 278
254 254 254 255 256 257 258 259 259 259 259 258 258 258 258 258 258 259 260 260 261 262 263 264 265 265 265 265 265 265 266 267 267 267 268 268 268 269 270 271 273 274 275 275 276 277 278 279 279 279 278 277
256 256 257 257 257 258 260 261 261 261 262 262 262 262 261 261 261 261 262 262 263 264 265 265 265 266 266 265 265 266 266 266 267 268 268 269 270 271 272 273 274 274 274 275 276 277 278 279 279 279 279 279
256 257 258 258 259 260 261 261 262 262 263 264 264 265 265 265 264 265 265 265 265 265 265 265 265 265 265 265 265 266 266 267 268 269 270 270 271 272 272 273 273 273 274 275 276 277 278 278 279 279 280 280
256 256 257 258 259 259 260 261 262 263 263 264 265 265 266 266 266 266 266 266 266 266 265 265 265 265 265 265 266 266 267 268 268 269 270 270 271 271 271 272 272 273 274 275 276 276 277 278 278 279 279 279
255 256 256 257 258 258 257 258 260 261 261 262 263 264 265 266 266 266 266 265 265 265 265 265 265 266 266 266 267 267 267 268 268 269 270 270 271 271 272 273 273 274 275 275 276 276 277 277 277 278 278 278
255 255 256 256 257 257 257 257 258 258 259 259 260 260 261 263 264 265 265 264 264 264 265 265 265 265 266 267 267 267 268 268 269 269 270 271 272 272 273 274 274 275 275 275 276 276 276 276 277 277 277 278
256 256 256 256 256 256 256 257 257 257 257 257 257 258 259 259 260 261 261 262 262 262 262 263 263 264 264 265 265 266 266 267 268 269 270 270 271 272 273 273 274 274 274 275 275 275 276 276 277 277 277 277
256 256 257 257 257 257 257 257 257 257 257 257 257 257 257 258 258 259 260 260 261 261 261 262 262 262 263 263 264 264 265 266 267 268 269 270 271 272 272 273 273 273 274 274 274 275 275 276 276 276 277 277
256 257 257 258 258 258 258 258 258 258 257 257 257 257 257 257 258 259 259 260 261 261 262 262 263 263 263 263 264 264 265 266 267 268 268 269 270 271 272 272 272 272 273 273 274 274 275 275 276 276 276 277
256 257 257 258 258 259 259 259 259 259 259 259 259 259 259 259 259 259 259 260 260 261 262 262 263 263 263 263 264 264 265 266 267 267 268 269 269 270 271 271 271 272 272 272 273 273 274 274 275 275 276 276
256 257 257 257 258 259 259 260 260 260 260 260 260 260 260 260 260 261 261 261 261 262 262 263 263 263 263 264 264 265 265 266 267 267 268 269 269 270 270 270 271 271 272 272 273 273 274 274 275 275 276 276
257 257 257 257 258 258 259 259 260 260 261 261 261 261 261 261 262 262 262 262 263 263 264 264 264 264 264 265 265 266 266 267 267 268 268 269 269 270 270 271 271 271 272 272 273 274 274 275 275 275 276 276
258 258 258 258 258 259 259 260 260 261 261 261 262 262 262 263 263 263 263 263 264 264 265 265 265 266 266 266 267 267 268 268 268 269 269 269 270 270 270 271 271 272 272 273 273 274 275 275 276 276 276 276
258 258 259 259 259 259 260 260 260 261 261 262 262 263 263 263 263 264 264 264 265 265 265 266 266 267 267 267 268 268 269 269 269 269 270 270 270 270 271 271 272 272 273 273 274 274 275 276 276 276 276 276
258 258 259 259 259 259 259 260 260 261 261 262 262 263 263 263 264 264 264 265 265 266 266 266 267 267 268 268 268 269 269 269 269 270 270 270 270 271 271 272 272 273 273 274 274 275 275 276 276 276 276 276
258 258 258 259 259 259 259 259 260 260 261 262 262 263 263 263 264 264 264 265 265 266 266 267 267 267 268 268 268 268 269 269 269 269 270 270 270 271 271 272 272 273 273 274 274 274 275 275 275 275 275 275
259 259 259 259 259 259 259 260 260 261 261 262 262 263 263 264 264 264 264 265 265 265 266 266 267 267 267 268 268 268 268 269 269 270 270 270 271 271 271 272 272 272 273 273 273 274 274 274 274 274 274 274
260 260 260 260 260 260 261 261 261 261 262 262 263 263 264 264 264 264 265 265 265 265 266 266 266 267 267 267 268 268 269 269 269 270 270 270 271 271 271 271 272 272 272 272 273 273 273 273 273 274 274 274
260 261 261 261 262 262 262 262 263 263 263 263 264 264 264 265 265 265 266 266 266 266 266 267 267 267 268 268 268 269 269 269 270 270 270 270 271 271 271 271 272 272 272 272 272 273 273 273 273 274 274 274
261 262 263 263 263 263 264 264 264 264 264 265 265 265 265 266 266 266 267 267 267 267 268 268 268 268 269 269 269 269 270 270 270 270 270 271 271 271 271 271 272 272 272 272 273 273 273 274 274 274 274 275
262 263 263 264 264 264 265 265 265 265 265 266 266 266 266 267 267 267 268 268 269 269 269 269 269 270 270 270 270 270 270 270 271 271 271 271 271 272 272 272 272 272 273 273 273 274 274 274 274 275 275 275
262 262 263 263 264 265 265 265 266 266 266 267 267 267 267 268 268 269 269 269 270 270 270 270 270 271 271 271 271 271 271 271 271 271 271 272 272 272 272 273 273 273 273 274 274 274 274 275 275 275 276 276
262 262 263 263 264 265 265 266 266 267 267 267 268 268 268 268 269 269 269 270 270 270 270 271 271 271 271 271 271 272 272 272 272 272 272 272 272 273 273 273 273 274 274 274 274 274 275 275 275 276 276 276
262 262 263 263 264 265 265 266 266 267 267 267 267 268 268 268 269 269 269 270 270 270 271 271 271 271 272 272 272 272 272 272 273 273 273 273 273 273 273 274 274 274 274 274 274 274 274 275 275 275 275 275
263 263 263 264 264 265 265 266 266 266 267 267 267 268 268 268 269 269 269 270 270 270 271 271 271 271 272 272 272 272 272 272 273 273 273 273 273 273 273 273 273 273 273 273 273 273 273 274 274 274 274 274
263 264 264 264 265 265 265 266 266 267 267 267 268 268 268 269 269 269 269 270 270 270 270 271 271 271 271 271 272 272 272 272 272 272 272 272 272 272 272 272 273 273 273 273 273 273 273 273 273 273 273 273
263 263 264 264 264 265 265 266 266 267 267 267 267 268 268 268 269 269 269 269 269 270 270 270 270 270 271 271 271 271 271 271 271 271 271 271 272 272 272 272 272 272 272 272 272 272 272 272 273 273 273 273
262 263 263 264 264 264 265 265 266 266 266 267 267 267 268 268 268 268 269 269 269 269 269 269 269 270 270 270 270 270 270 270 270 271 271 271 271 271 271 271 271 272 272 272 272 272 272 272 272 272 272 273
262 263 263 263 264 264 264 265 265 266 266 266 267 267 267 267 268 268 268 268 268 269 269 269 269 269 269 269 269 270 270 270 270 270 270 271 271 271 271 271 271 271 272 272 272 272 272 272 272 272 272 272
Height
10762 10763 10765 10766 10767 10767 10768 10770 10771 10774 10775 10775 10777 10778 10779 10780 10782 10784 10785 10785 10786 10786 10786 10786 10787 10788 10788 10788 10789 10789 10788 10788 10789 10789 10789 10789 10789 10789 10789 10789 10789 10789 10788 10788 10787 10787 10787 10787 10787 10787 10787 10787
10754 10755 10756 10758 10759 10759 10760 10762 10764 10766 10768 10768 10769 10771 10772 10774 10776 10777 10777 10778 10778 10778 10779 10779 10779 10780 10781 10781 10781 10782 10781 10781 10781 10781 10781 10781 10781 10781 10781 10781 10781 10781 10780 10780 10779 10779 10778 10778 10778 10779 10779 10779
10746 10747 10748 10749 10751 10752 10753 10754 10756 10758 10759 10759 10761 10763 10765 10767 10768 10769 10769 10769 10769 10770 10771 10771 10771 10771 10772 10773 10773 10773 10773 10773 10773 10772 10772 10772 10772 10772 10773 10773 10773 10772 10772 10771 10771 10770 10770 10769 10769 10770 10771 10771
10738 10739 10740 10741 10744 10745 10746 10747 10748 10749 10749 10750 10752 10755 10757 10758 10760 10760 10760 10760 10761 10762 10762 10763 10762 10762 10762 10763 10764 10764 10764 10764 10764 10763 10763 10763 10764 10764 10764 10764 10763 10763 10763 10763 10762 10762 10761 10761 10761 10761 10761 10762
10731 10731 10732 10734 10736 10738 10739 10739 10740 10741 10741 10742 10744 10746 10748 10749 10750 10750 10750 10751 10752 10753 10753 10753 10753 10753 10753 10754 10755 10755 10755 10754 10755 10755 10755 10755 10755 10755 10754 10754 10754 10754 10754 10754 10754 10753 10753 10752 10752 10752 10752 10753
10723 10724 10725 10726 10728 10730 10731 10731 10732 10733 10733 10734 10736 10738 10739 10740 10740 10740 10741 10742 10743 10744 10744 10743 10743 10744 10744 10745 10745 10745 10745 10745 10745 10745 10745 10746 10746 10745 10745 10745 10745 10745 10745 10745 10745 10745 10744 10744 10744 10743 10743 10744
10715 10716 10717 10718 10720 10722 10723 10723 10724 10724 10724 10726 10727 10729 10730 10731 10731 10731 10733 10733 10734 10734 10734 10733 10733 10734 10735 10735 10736 10736 10736 10736 10736 10736 10736 10736 10736 10735 10736 10737 10736 10736 10736 10736 10736 10736 10736 10735 10735 10735 10735 10735
10708 10708 10709 10710 10712 10713 10714 10714 10715 10716 10716 10717 10718 10720 10721 10721 10721 10722 10723 10723 10724 10724 10724 10723 10723 10724 10725 10726 10726 10726 10726 10727 10727 10727 10727 10727 10726 10726 10726 10727 10727 10727 10727 10727 10727 10727 10726 10726 10726 10725 10725 10725
10702 10702 10701 10702 10703 10704 10704 10705 10705 10706 10707 10708 10709 10711 10711 10711 10711 10712 10713 10713 10714 10714 10714 10714 10714 10714 10715 10715 10715 10716 10717 10717 10717 10718 10718 10718 10717 10717 10717 10718 10718 10717 10717 10717 10717 10717 10717 10716 10716 10715 10715 10715
10693 10693 10693 10693 10694 10694 10694 10694 10695 10696 10696 10698 10699 10700 10700 10701 10701 10702 10703 10703 10704 10704 10704 10703 10703 10704 10704 10705 10706 10707 10707 10708 10708 10708 10709 10709 10709 10708 10708 10708 10708 10708 10707 10707 10707 10706 10706 10706 10705 10705 10705 10705
10682 10684 10684 10684 10684 10684 10684 10685 10685 10686 10687 10688 10689 10689 10689 10690 10690 10691 10692 10693 10694 10694 10693 10693 10693 10693 10694 10695 10696 10697 10698 10698 10698 10698 10699 10699 10699 10698 10698 10698 10698 10697 10697 10696 10696 10695 10695 10695 10695 10695 10695 10695
10671 10673 10674 10674 10674 10674 10675 10675 10676 10676 10676 10678 10678 10679 10679 10679 10680 10681 10682 10683 10683 10683 10682 10682 10682 10683 10684 10685 10686 10686 10687 10688 10688 10688 10688 10688 10688 10688 10687 10687 10687 10686 10686 10685 10685 10685 10684 10684 10684 10684 10684 10684
10660 10662 10664 10665 10665 10665 10665 10665 10666 10666 10666 10667 10668 10668 10668 10668 10669 10670 10671 10672 10672 10672 10671 10671 10671 10672 10673 10674 10675 10676 10676 10677 10677 10678 10678 10677 10677 10677 10676 10675 10675 10675 10674 10674 10673 10673 10673 10673 10674 10674 10674 10674
10649 10650 10652 10654 10655 10655 10655 10655 10655 10655 10655 10656 10656 10657 10657 10657 10658 10659 10660 10660 10660 10660 10660 10660 10660 10661 10662 10663 10663 10664 10665 10666 10666 10667 10667 10666 10665 10665 10664 10663 10662 10662 10662 10662 10662 10662 10662 10662 10662 10662 10662 10662
10637 10639 10640 10642 10644 10645 10644 10644 10645 10645 10644 10644 10644 10645 10645 10645 10646 10647 10648 10648 10649 10648 10648 10648 10648 10649 10650 10651 10652 10653 10654 10654 10655 10655 10654 10654 10653 10652 10651 10651 10650 10650 10650 10650 10650 10650 10650 10650 10651 10651 10651 10650
10626 10627 10629 10630 10632 10633 10633 10633 10634 10633 10633 10632 10633 10633 10633 10633 10633 10635 10636 10636 10636 10636 10636 10636 10636 10637 10638 10639 10640 10641 10641 10641 10642 10642 10641 10641 10640 10639 10639 10639 10638 10638 10638 10638 10638 10638 10639 10638 10638 10638 10638 10637
10615 10616 10617 10618 10619 10621 10621 10621 10622 10622 10622 10621 10621 10621 10621 10621 10622 10623 10624 10625 10625 10624 10624 10624 10624 10625 10626 10627 10628 10628 10628 10628 10628 10628 10627 10627 10627 10627 10627 10626 10626 10626 10625 10625 10625 10625 10626 10626 10625 10625 10624 10623
10604 10604 10605 10605 10607 10608 10609 10610 10611 10611 10612 10611 10611 10610 10610 10610 10610 10611 10613 10613 10613 10613 10613 10613 10612 10613 10614 10615 10615 10615 10615 10615 10615 10614 10614 10614 10615 10615 10615 10614 10614 10613 10612 10612 10611 10611 10612 10612 10612 10611 10609 10609
10592 10592 10592 10593 10595 10596 10597 10598 10600 10601 10602 10601 10601 10600 10599 10599 10599 10599 10601 10602 10602 10602 10601 10600 10600 10600 10601 10602 10602 10602 10602 10602 10602 10602 10601 10601 10602 10602 10602 10602 10600 10599 10598 10598 10597 10597 10597 10597 10597 10596 10595 10595
10580 10580 10581 10582 10584 10585 10586 10587 10589 10590 10591 10591 10590 10589 10588 10587 10587 10586 10587 10589 10590 10590 10589 10588 10587 10587 10589 10589 10589 10589 10589 10589 10589 10589 10588 10587 10588 10588 10589 10588 10587 10585 10584 10584 10583 10583 10582 10582 10582 10581 10581 10581
10568 10569 10570 10572 10573 10574 10575 10576 10578 10578 10579 10580 10579 10578 10576 10575 10574 10573 10573 10575 10577 10577 10576 10576 10575 10575 10576 10576 10576 10576 10576 10576 10575 10575 10574 10574 10574 10574 10574 10573 10572 10570 10569 10569 10568 10568 10568 10567 10567 10567 10567 10567
10559 10560 10561 10562 10562 10563 10564 10564 10565 10565 10565 10566 10566 10565 10564 10562 10562 10561 10561 10562 10563 10563 10563 10563 10563 10562 10563 10563 10563 10563 10563 10562 10561 10561 10560 10560 10559 10559 10559 10558 10556 10554 10554 10554 10554 10554 10553 10553 10553 10552 10552 10552
10551 10551 10550 10550 10549 10549 10549 10550 10550 10550 10551 10551 10552 10552 10551 10550 10549 10549 10549 10549 10549 10549 10549 10549 10549 10549 10549 10549 10549 10548 10548 10547 10546 10546 10546 10545 10544 10544 10543 10542 10541 10540 10540 10540 10540 10540 10538 10537 10537 10537 10537 10537
10540 10539 10538 10537 10536 10536 10536 10536 10537 10537 10537 10538 10538 10539 10539 10538 10537 10537 10536 10536 10536 10535 10535 10534 10534 10534 10533 10533 10533 10533 10532 10531 10531 10531 10530 10530 10529 10529 10528 10527 10526 10525 10525 10526 10526 10524 10523 10523 10523 10523 10523 10523
10527 10527 10526 10526 10525 10525 10524 10524 10524 10524 10524 10524 10524 10525 10525 10525 10524 10523 10523 10522 10522 10521 10520 10519 10519 10518 10518 10518 10518 10517 10517 10516 10515 10515 10514 10514 10514 10513 10513 10512 10511 10510 10510 10511 10511 10509 10508 10509 10509 10508 10507 10507
10515 10515 10514 10514 10513 10512 10512 10511 10511 10511 10510 10510 10510 10511 10511 10512 10511 10510 10509 10509 10508 10507 10506 10505 10504 10503 10503 10503 10502 10502 10501 10500 10500 10499 10498 10498 10498 10498 10498 10498 10495 10494 10494 10495 10495 10494 10494 10495 10493 10492 10492 10491
10501 10502 10501 10501 10500 10499 10498 10498 10498 10497 10496 10496 10496 10497 10498 10497 10497 10496 10496 10495 10494 10493 10492 10491 10489 10488 10488 10488 10487 10487 10486 10485 10484 10483 10482 10482 10482 10482 10483 10482 10479 10478 10478 10479 10479 10478 10479 10480 10477 10477 10478 10476
10488 10488 10488 10487 10486 10486 10485 10485 10484 10483 10482 10482 10483 10484 10483 10483 10482 10482 10481 10481 10480 10479 10478 10476 10475 10474 10473 10472 10472 10471 10471 10470 10469 10467 10467 10466 10466 10466 10467 10466 10463 10462 10462 10462 10461 10461 10464 10464 10462 10464 10462 10459
10475 10475 10475 10474 10473 10473 10473 10472 10471 10470 10469 10469 10469 10470 10469 10468 10468 10467 10467 10466 10466 10465 10463 10462 10460 10459 10458 10457 10456 10456 10455 10454 10452 10452 10451 10450 10450 10450 10450 10450 10448 10447 10446 10445 10444 10445 10447 10447 10447 10449 10446 10443
10463 10463 10462 10461 10461 10461 10460 10459 10458 10457 10456 10455 10455 10455 10455 10454 10453 10453 10452 10451 10451 10450 10448 10447 10446 10444 10442 10441 10440 10440 10439 10438 10436 10436 10435 10434 10434 10434 10433 10433 10433 10432 10429 10428 10428 10428 10429 10429 10430 10432 10430 10429
10451 10450 10449 10449 10448 10448 10447 10446 10444 10443 10442 10441 10441 10441 10441 10440 10439 10438 10437 10437 10435 10435 10433 10432 10431 10429 10427 10426 10425 10424 10423 10422 10421 10420 10419 10418 10418 10417 10416 10417 10418 10416 10412 10411 10413 10411 10410 10412 10413 10414 10414 10414